[[{"header":{"parameterUnit":"m.s-1","parameterCategory":1,"la1":30.2991,"la2":30.254,"lo1":-89.0895,"lo2":-89.0444,"dy":0.0017,"dx":0.0017,"nx":28,"ny":28,"refTime":"2024-08-29T09:00:00:Z","depth":0,"parameterNumber":2,"parameterNumberName":"U-component_of_WINDS"},"data":[0,0,0,0,0,0,0,0,0,0,0,0,0,0,0,0,0,0,0,0,0,0,0,0,0,0,0,0,0,0,0,0,0,0,0,0,0,0,0,0,0,0,0,0,0,0,0,0,0,0,0,0,0,0,0,0,0,0,-4.4911,-4.4911,0,-4.4944,-4.4944,-4.4944,-4.4835,-4.4832,-4.4829,-4.4825,-4.4857,-4.4861,-4.4865,0,0,0,0,0,0,0,0,0,0,0,0,0,-4.4752,-4.4756,-4.4911,-4.4911,-4.4912,-4.4944,-4.4944,-4.4945,-4.4836,-4.4832,-4.4828,-4.4824,-4.4856,-4.4861,-4.4865,0,0,0,0,0,0,0,0,0,0,0,0,0,-4.4807,-4.4757,-4.4911,-4.4861,-4.4857,-4.4944,-4.4944,-4.4945,-4.4837,-4.4832,-4.4827,-4.4822,-4.4855,-4.486,-4.4866,-4.5001,0,0,-4.4884,-4.4887,0,0,0,0,0,0,0,0,-4.4804,-4.4813,-4.4868,-4.4865,-4.4861,-4.488,-4.49,-4.4964,-4.4838,-4.4844,-4.4825,-4.482,-4.4869,-4.4873,-4.489,-4.5003,-4.5004,-4.4885,-4.4888,-4.4891,-4.4892,0,0,0,0,0,0,0,-4.48,-4.481,-4.4924,-4.4869,-4.4865,-4.4837,-4.4839,-4.4911,-4.4884,-4.4843,-4.4836,-4.4841,-4.4866,-4.4885,-4.489,-4.5004,-4.4884,-4.489,-4.4893,-4.4895,-4.5226,-4.5231,0,0,0,0,0,0,-4.4803,-4.4808,-4.4923,-4.4925,-4.4819,-4.4844,-4.4846,-4.4879,-4.4883,-4.4879,-4.4845,-4.4836,-4.4877,-4.4883,-4.4891,-4.5046,-4.4891,-4.4896,-4.4899,-4.5221,-4.5227,-4.5233,0,0,0,0,0,0,-4.48,-4.4814,-4.4921,-4.4864,-4.4876,-4.4852,-4.4889,-4.4882,-4.4901,-4.4884,-4.4879,-4.487,-4.4874,-4.4883,-4.4974,-4.5045,-4.4899,-4.4904,-4.5215,-4.5223,-4.523,-4.5359,0,0,0,0,0,0,-4.4796,-4.4814,-4.4865,-4.4866,-4.4879,-4.5005,-4.4894,-4.4886,-4.4912,-4.49,-4.4906,-4.4902,-4.487,-4.4966,-4.498,-4.5051,-4.4909,-4.5208,-4.5218,-4.5228,-4.5348,-4.537,-4.5389,0,0,0,0,0,-4.4791,-4.4901,-4.4869,-4.4883,-4.4943,-4.5009,-4.5016,-4.4978,-4.4918,-4.4968,-4.4958,-4.4902,-4.5037,-4.4976,-4.4991,-4.5065,-4.5203,-4.5215,-4.5227,-4.5339,-4.5366,-4.5389,0,0,0,0,0,0,-4.4908,-4.49,-4.4864,-4.4978,-4.4995,-4.4991,-4.5053,-4.5009,-4.5043,-4.503,-4.4981,-4.4984,-4.5083,-4.5084,-4.5016,-4.5194,-4.5109,-4.5125,-4.5189,-4.5215,-4.5235,-4.523,-4.4914,0,0,0,0,0,-4.4948,-4.5002,-4.4992,-4.5093,-4.5104,-4.5078,-4.5105,-4.5074,-4.509,-4.5096,-4.5092,-4.5109,-4.5154,-4.5186,-4.5227,-4.5349,-4.5347,-4.5408,-4.5428,-4.5445,-4.5457,-4.5519,-4.5544,-4.5272,-4.5272,-4.5271,0,0,-4.5029,-4.5031,-4.5068,-4.5117,-4.5127,-4.5183,-4.5084,-4.5149,-4.5189,-4.5106,-4.519,-4.5189,-4.5204,-4.5311,-4.5358,-4.5314,-4.5533,-4.546,-4.5474,-4.5477,-4.5534,-4.5559,-4.5582,-4.528,-4.5278,-4.5277,0,0,-4.5204,-4.5214,-4.5297,-4.5309,-4.5325,-4.5307,-4.5327,-4.533,-4.5325,-4.541,-4.5348,-4.5396,-4.5477,-4.5489,-4.5506,-4.5688,-4.5636,-4.5703,-4.5808,-4.5869,-4.589,-4.5909,-4.5969,-4.5992,-4.5717,-4.5717,-4.5717,0,-4.5302,-4.5385,-4.5345,-4.5413,-4.5435,-4.5364,-4.5447,-4.5461,-4.549,-4.5506,-4.5458,-4.5556,-4.5562,-4.5669,-4.5713,-4.5731,-4.575,-4.5699,-4.5891,-4.5909,-4.5926,-4.5983,-4.6006,-4.5724,-4.5724,-4.5723,-4.5722,0,-4.5503,-4.5562,-4.5628,-4.5657,-4.5687,-4.5763,-4.5733,-4.5768,-4.5736,-4.5723,-4.5809,-4.5814,-4.5853,-4.5878,-4.5847,-4.598,-4.5952,-4.5899,-4.5811,-4.596,-4.6012,-4.6035,-4.5735,-4.5733,-4.573,-4.5729,0,0,-4.575,-4.5757,-4.5781,-4.5792,-4.5806,-4.5849,-4.5922,-4.5961,-4.599,-4.6014,-4.6071,-4.6142,-4.6091,-4.6111,-4.6082,-4.6136,-4.6274,-4.6075,-4.6074,-4.6107,-4.6416,-4.6453,-4.6479,-4.6242,-4.6246,-4.625,-4.6413,0,-4.5919,-4.6041,-4.6008,-4.613,-4.6181,-4.6115,-4.6178,-4.6192,-4.6182,-4.6224,-4.6214,-4.6263,-4.6196,-4.6206,-4.6257,-4.6246,-4.6334,-4.6235,-4.6291,-4.6294,-4.6284,-4.6507,-4.6546,-4.67,-4.6434,-4.6438,-4.644,0,-4.6131,-4.6162,-4.6289,-4.6291,-4.6312,-4.6369,-4.6401,-4.6443,-4.6458,-4.6447,-4.6469,-4.6429,-4.6498,-4.6415,-4.6508,-4.6441,-4.6463,-4.6462,-4.6467,-4.6466,-4.6372,-4.6508,-4.6748,-4.677,-4.6473,-4.6471,-4.6468,0,-4.6292,-4.6366,-4.645,-4.6463,-4.647,-4.651,-4.6515,-4.6525,-4.655,-4.6579,-4.6595,-4.6632,-4.6651,-4.6681,-4.6651,-4.6593,-4.6748,-4.6663,-4.6738,-4.6738,-4.6768,-4.6766,-4.7011,-4.6792,-4.6792,-4.6792,-4.6791,0,-4.648,-4.6559,-4.6522,-4.6574,-4.666,-4.6622,-4.6708,-4.6705,-4.6715,-4.6764,-4.6711,-4.6758,-4.6718,-4.6761,-4.6739,-4.6818,-4.6828,-4.6819,-4.6811,-4.6821,-4.6821,-4.683,-4.6817,-4.6798,-4.6796,-4.6795,-4.6794,0,-4.6672,-4.6651,-4.6738,-4.6738,-4.674,-4.6803,-4.6802,-4.6849,-4.6837,-4.6899,-4.6911,-4.6892,-4.694,-4.6914,-4.6965,-4.6949,-4.705,-4.703,-4.7044,-4.7037,-4.7112,-4.7103,-4.7367,-4.7398,-4.7164,-4.7167,-4.7168,0,-4.6791,-4.685,-4.6857,-4.6885,-4.6894,-4.6942,-4.6967,-4.6933,-4.6961,-4.6982,-4.7026,-4.707,-4.7102,-4.7182,-4.7171,-4.7209,-4.7187,-4.7277,-4.7191,-4.7198,-4.7182,-4.7176,-4.718,-4.7292,-4.7295,-4.7297,-4.7299,0,-4.7003,-4.699,-4.7028,-4.7064,-4.7096,-4.7122,-4.7143,-4.717,-4.7136,-4.7171,-4.7219,-4.7245,-4.7296,-4.7338,-4.7371,-4.7375,-4.733,-4.7327,-4.7345,-4.7352,-4.7356,-4.735,-4.7085,-4.7319,-4.7317,-4.7316,-4.7315,-4.7314,-4.7158,-4.7206,-4.7218,-4.7262,-4.7275,-4.7297,-4.734,-4.7333,-4.7373,-4.7411,-4.739,-4.7445,-4.7458,-4.7497,-4.7507,-4.755,-4.7513,-4.7541,-4.7547,-4.7553,-4.7561,-4.7354,-4.7556,-4.7556,-4.7555,-4.7555,-4.7554,0,-4.7363,-4.7367,-4.7409,-4.744,-4.7475,-4.7433,-4.7455,-4.7486,-4.7536,-4.7552,-4.7585,-4.764,-4.7682,-4.7676,-4.7713,-4.7748,-4.7729,-4.7759,-4.7753,-4.7754,-4.7594,-4.7572,-4.7774,-4.7774,-4.7774,-4.7774,-4.7774,-4.7774,-4.7473,-4.7551,-4.7539,-4.7623,-4.7626,-4.7681,-4.7696,-4.7715,-4.7727,-4.7791,-4.7825,-4.7821,-4.7828,-4.7865,-4.7901,-4.7898,-4.7912,-4.7949,-4.7938,-4.7787,-4.7765,-4.7744,-4.7723,-4.7954,-4.7954,-4.8093,-4.8095,-4.8096]},{"header":{"parameterUnit":"m.s-1","parameterCategory":1,"la1":30.2991,"la2":30.254,"lo1":-89.0895,"lo2":-89.0444,"dy":0.0017,"dx":0.0017,"nx":28,"ny":28,"refTime":"2024-08-29T09:00:00:Z","depth":0,"parameterNumber":3,"parameterNumberName":"V-component_of_WINDS"},"data":[0,0,0,0,0,0,0,0,0,0,0,0,0,0,0,0,0,0,0,0,0,0,0,0,0,0,0,0,0,0,0,0,0,0,0,0,0,0,0,0,0,0,0,0,0,0,0,0,0,0,0,0,0,0,0,0,0,0,1.1064,1.1064,0,1.1055,1.1055,1.1055,1.0939,1.0936,1.0933,1.093,1.0922,1.0924,1.0927,0,0,0,0,0,0,0,0,0,0,0,0,0,1.0982,1.0984,1.1064,1.1064,1.1063,1.1055,1.1055,1.1054,1.0939,1.0936,1.0932,1.0929,1.0921,1.0924,1.0927,0,0,0,0,0,0,0,0,0,0,0,0,0,1.1,1.0985,1.1064,1.1005,1.1,1.1055,1.1055,1.1054,1.094,1.0936,1.0931,1.0927,1.092,1.0924,1.0927,1.1038,0,0,1.0939,1.0941,0,0,0,0,0,0,0,0,1.0999,1.1003,1.1014,1.1009,1.1003,1.0993,1.1023,1.1049,1.0941,1.0963,1.093,1.0925,1.0949,1.095,1.0958,1.1038,1.1038,1.0939,1.0942,1.0943,1.0944,0,0,0,0,0,0,0,1.0998,1.1003,1.106,1.1014,1.1008,1.0979,1.0977,1.1027,1.0981,1.0961,1.0952,1.0953,1.0946,1.0955,1.0957,1.1037,1.0939,1.0942,1.0945,1.0946,1.1209,1.1214,0,0,0,0,0,0,1.1005,1.1003,1.106,1.106,1.099,1.0985,1.0982,1.1001,1.098,1.0972,1.0956,1.0947,1.0951,1.0953,1.0957,1.1086,1.0943,1.0947,1.0949,1.1205,1.121,1.1216,0,0,0,0,0,0,1.1004,1.1011,1.1061,1.1029,1.1033,1.0991,1.1013,1.1003,1.1012,1.0977,1.0968,1.0975,1.0947,1.0951,1.1019,1.1084,1.0948,1.0952,1.1199,1.1206,1.1213,1.1347,0,0,0,0,0,0,1.1002,1.1011,1.1053,1.1031,1.1035,1.1124,1.1017,1.1006,1.1019,1.1007,1.0991,1.0985,1.0944,1.1014,1.1023,1.1087,1.0955,1.1193,1.1202,1.1211,1.1336,1.1357,1.1375,0,0,0,0,0,1.0999,1.109,1.1055,1.1063,1.1086,1.1128,1.113,1.1082,1.1025,1.1066,1.1044,1.0985,1.1076,1.1022,1.1031,1.1097,1.1189,1.12,1.121,1.1327,1.1353,1.1375,0,0,0,0,0,0,1.1121,1.1086,1.1047,1.1134,1.1135,1.1108,1.1159,1.111,1.1127,1.1115,1.1054,1.1052,1.113,1.112,1.1061,1.1204,1.1122,1.1135,1.1208,1.1233,1.1252,1.1253,1.0958,0,0,0,0,0,1.1158,1.1194,1.1162,1.1242,1.1244,1.1202,1.1218,1.1181,1.1179,1.1179,1.1161,1.1162,1.119,1.1211,1.1235,1.1334,1.133,1.1384,1.1403,1.142,1.1432,1.1486,1.151,1.1251,1.1251,1.125,0,0,1.1234,1.122,1.1247,1.1266,1.1262,1.1302,1.1203,1.1248,1.1278,1.1186,1.1249,1.1236,1.1233,1.1318,1.1354,1.1312,1.1503,1.1433,1.1447,1.145,1.1499,1.1524,1.1546,1.1258,1.1257,1.1255,0,0,1.1395,1.1387,1.1453,1.1452,1.1447,1.1419,1.1435,1.1416,1.1404,1.1467,1.1399,1.1433,1.1483,1.1484,1.1492,1.1654,1.1602,1.1664,1.1767,1.182,1.184,1.1858,1.1918,1.194,1.1676,1.1676,1.1676,0,1.1491,1.1548,1.1493,1.1544,1.1556,1.1474,1.1542,1.1543,1.1547,1.1557,1.1509,1.1572,1.1564,1.1648,1.1688,1.1696,1.1714,1.1666,1.1842,1.1859,1.1875,1.1931,1.1954,1.1684,1.1683,1.1682,1.1682,0,1.1667,1.1707,1.1761,1.1768,1.1785,1.1844,1.18,1.1823,1.1785,1.1762,1.1828,1.1815,1.1837,1.1853,1.1816,1.1934,1.1908,1.1852,1.1768,1.1908,1.196,1.1981,1.1695,1.1692,1.169,1.1688,0,0,1.1903,1.188,1.1901,1.1904,1.1894,1.1924,1.198,1.2001,1.2023,1.2029,1.2075,1.212,1.2069,1.2077,1.2039,1.2085,1.2217,1.2024,1.2023,1.2062,1.2348,1.2391,1.2417,1.2182,1.2186,1.2189,1.2349,0,1.2059,1.2153,1.2107,1.2207,1.2245,1.2169,1.2217,1.2217,1.2197,1.2227,1.2204,1.2238,1.2167,1.2172,1.2214,1.2192,1.2274,1.218,1.2225,1.2228,1.223,1.2444,1.2489,1.2641,1.2369,1.2372,1.2374,0,1.2254,1.2269,1.2373,1.2357,1.2371,1.2416,1.2432,1.2461,1.2459,1.2442,1.2452,1.2404,1.2458,1.2375,1.2449,1.2386,1.2402,1.2395,1.2399,1.2403,1.2311,1.2455,1.2688,1.2712,1.2405,1.2403,1.2401,0,1.2419,1.2464,1.2533,1.2537,1.252,1.2554,1.2548,1.2542,1.2558,1.2573,1.2583,1.2603,1.2615,1.2632,1.2591,1.2533,1.2672,1.2585,1.266,1.2662,1.2694,1.2693,1.2935,1.2702,1.2702,1.2701,1.2701,0,1.2599,1.2666,1.2607,1.265,1.2723,1.2669,1.2743,1.2729,1.2725,1.2764,1.2699,1.2737,1.2679,1.2712,1.268,1.2748,1.2753,1.2741,1.2732,1.2748,1.275,1.2759,1.2748,1.2707,1.2706,1.2705,1.2704,0,1.2795,1.2758,1.2829,1.2807,1.2803,1.2859,1.284,1.2879,1.2855,1.2905,1.2914,1.2876,1.2911,1.2872,1.2903,1.2882,1.2975,1.2949,1.2976,1.2969,1.3048,1.3042,1.3305,1.3338,1.3083,1.3085,1.3087,0,1.2914,1.2964,1.2948,1.297,1.2968,1.3003,1.302,1.2969,1.2989,1.2992,1.3031,1.306,1.3081,1.3141,1.3117,1.3142,1.3117,1.3208,1.3121,1.3136,1.3121,1.3119,1.3125,1.3226,1.3229,1.3232,1.3234,0,1.3128,1.3107,1.3133,1.3154,1.3176,1.319,1.3198,1.322,1.3167,1.3193,1.3228,1.3245,1.3278,1.3309,1.3326,1.3321,1.327,1.3262,1.3281,1.3298,1.3312,1.3308,1.3026,1.3256,1.3254,1.3252,1.3251,1.325,1.329,1.3332,1.3328,1.3359,1.3361,1.3371,1.3407,1.3388,1.3416,1.3439,1.3407,1.3452,1.345,1.3469,1.3469,1.3504,1.3465,1.3493,1.35,1.3508,1.3521,1.3306,1.3507,1.3506,1.3505,1.3505,1.3504,0,1.3502,1.3496,1.3526,1.3541,1.3566,1.3515,1.3523,1.3548,1.3588,1.359,1.3613,1.3655,1.3685,1.3663,1.3688,1.372,1.3698,1.3729,1.3727,1.3727,1.3553,1.3534,1.3747,1.3747,1.3747,1.3747,1.3747,1.3747,1.3616,1.3685,1.3664,1.3733,1.3726,1.377,1.3779,1.3788,1.379,1.3839,1.3864,1.385,1.3843,1.3868,1.3894,1.3886,1.39,1.394,1.3925,1.3763,1.3739,1.3716,1.3699,1.3943,1.3943,1.4096,1.4098,1.4099]}]]